[[{"header":{"parameterUnit":"m.s-1","parameterCategory":1,"la1":30.2992,"la2":30.254,"lo1":-89.0895,"lo2":-89.0443,"dy":0.0025,"dx":0.0025,"nx":19,"ny":19,"refTime":"2026-05-07T03:00:00:Z","depth":0,"parameterNumber":2,"parameterNumberName":"U-component_of_WINDS"},"data":[0,0,0,-4.0623,-4.0625,-4.0696,-4.0696,-4.0814,-4.0815,0,0,0,0,0,0,0,0,0,0,0,-4.0619,-4.062,-4.0623,-4.0625,-4.0696,-4.0696,-4.0813,-4.0815,0,0,0,0,0,0,0,0,0,0,0,-4.0618,-4.062,-4.0621,-4.0626,-4.0696,-4.0696,-4.0813,-4.075,0,0,0,0,0,0,0,0,0,0,-4.0677,-4.0688,-4.0619,-4.0621,-4.0626,-4.0696,-4.0696,-4.0747,-4.0754,-4.0793,0,-4.0832,0,-4.0826,-4.0825,-4.0825,0,0,0,-4.0613,-4.0682,-4.0687,-4.0621,-4.0627,-4.0696,-4.0661,-4.0751,-4.0759,-4.0803,-4.0834,-4.0837,-4.0828,-4.0825,-4.0826,-4.1093,-4.1094,0,0,-4.0609,-4.064,-4.0681,-4.0693,-4.0683,-4.0658,-4.0663,-4.0755,-4.079,-4.0834,-4.0839,-4.083,-4.0826,-4.0828,-4.1091,-4.1093,0,0,0,-4.0606,-4.0638,-4.0639,-4.0689,-4.07,-4.0661,-4.0666,-4.0786,-4.0784,-4.0841,-4.0831,-4.0827,-4.0829,-4.1089,-4.1092,-4.1212,0,0,0,-4.0603,-4.0636,-4.0638,-4.0658,-4.0698,-4.0744,-4.0696,-4.0778,-4.0787,-4.083,-4.0827,-4.083,-4.1087,-4.109,-4.1204,-4.1264,0,0,0,-4.0608,-4.0636,-4.0652,-4.0659,-4.0691,-4.0741,-4.0744,-4.0779,-4.0782,-4.0825,-4.0831,-4.1085,-4.109,-4.1197,-4.1253,-4.1344,0,0,0,-4.0623,-4.0757,-4.0655,-4.0801,-4.069,-4.0815,-4.0743,-4.0834,-4.0886,-4.0828,-4.1087,-4.1091,-4.1195,-4.1246,-4.1337,-4.1427,-4.1468,0,0,-4.081,-4.0781,-4.0865,-4.0775,-4.0926,-4.0802,-4.097,-4.0988,-4.0964,-4.1051,-4.1057,-4.1207,-4.1252,-4.1343,-4.1681,-4.1713,0,0,0,-4.0934,-4.0995,-4.1029,-4.1079,-4.1096,-4.1116,-4.1104,-4.1111,-4.1184,-4.1015,-4.1263,-4.1289,-4.1341,-4.1383,-4.141,-4.1453,-4.1112,-4.1111,-4.1111,-4.1244,-4.1206,-4.1343,-4.1314,-4.1364,-4.1351,-4.1389,-4.1395,-4.1342,-4.1402,-4.1428,-4.1637,-4.1687,-4.1708,-4.1753,-4.1471,-4.1472,-4.1472,-4.1472,-4.1515,-4.1596,-4.1523,-4.1629,-4.1589,-4.1678,-4.1671,-4.1631,-4.1708,-4.1614,-4.1658,-4.156,-4.1744,-4.1782,-4.1481,-4.1479,-4.1478,-4.1478,-4.1477,-4.1715,-4.1747,-4.1753,-4.1823,-4.1881,-4.1846,-4.1925,-4.1884,-4.1847,-4.1891,-4.1915,-4.1913,-4.1907,-4.1905,-4.1906,-4.1906,-4.1907,-4.1907,-4.1908,-4.192,-4.1922,-4.1993,-4.2023,-4.2051,-4.2082,-4.2072,-4.2098,-4.2117,-4.2082,-4.2082,-4.2024,-4.1769,-4.1707,-4.1919,-4.1917,-4.1916,-4.1915,-4.1914,-4.2211,-4.2139,-4.2248,-4.2277,-4.2309,-4.237,-4.2318,-4.2375,-4.2391,-4.2431,-4.2364,-4.2182,-4.2149,-4.2127,-4.2075,-4.2371,-4.2371,-4.2371,-4.2371,-4.238,-4.236,-4.2463,-4.2511,-4.2553,-4.2517,-4.2643,-4.2637,-4.2618,-4.2626,-4.2577,-4.2505,-4.2484,-4.2464,-4.2435,-4.2386,-4.2753,-4.2754,-4.2754,-4.2558,-4.254,-4.2655,-4.2636,-4.2659,-4.268,-4.2797,-4.2856,-4.282,-4.2769,-4.2632,-4.2616,-4.2498,-4.2461,-4.2408,-4.2364,-4.2273,0,0]},{"header":{"parameterUnit":"m.s-1","parameterCategory":1,"la1":30.2992,"la2":30.254,"lo1":-89.0895,"lo2":-89.0443,"dy":0.0025,"dx":0.0025,"nx":19,"ny":19,"refTime":"2026-05-07T03:00:00:Z","depth":0,"parameterNumber":3,"parameterNumberName":"V-component_of_WINDS"},"data":[0,0,0,0.4072,0.4071,0.405,0.405,0.4023,0.4023,0,0,0,0,0,0,0,0,0,0,0,0.4077,0.4077,0.4072,0.4071,0.405,0.405,0.4024,0.4023,0,0,0,0,0,0,0,0,0,0,0,0.4078,0.4077,0.4077,0.4071,0.405,0.405,0.4024,0.404,0,0,0,0,0,0,0,0,0,0,0.406,0.4064,0.4077,0.4077,0.4071,0.405,0.405,0.404,0.4039,0.4033,0,0.4027,0,0.4025,0.4021,0.4021,0,0,0,0.4072,0.4066,0.4061,0.4077,0.4071,0.405,0.406,0.4039,0.4037,0.4031,0.4027,0.4026,0.4024,0.4021,0.4021,0.3987,0.3987,0,0,0.4073,0.4073,0.4062,0.4059,0.4062,0.4061,0.4059,0.4038,0.4034,0.4027,0.4025,0.4024,0.4021,0.4021,0.3987,0.3987,0,0,0,0.4076,0.4074,0.407,0.4061,0.4057,0.406,0.4058,0.4035,0.4034,0.4025,0.4024,0.4021,0.4021,0.3987,0.3987,0.3979,0,0,0,0.4077,0.4076,0.407,0.407,0.4057,0.4046,0.4056,0.4035,0.4033,0.4024,0.4021,0.402,0.3988,0.3987,0.3979,0.3974,0,0,0,0.4079,0.4076,0.4073,0.407,0.4061,0.4046,0.4043,0.4035,0.4032,0.4021,0.402,0.3988,0.3987,0.398,0.3975,0.3966,0,0,0,0.4082,0.4065,0.4073,0.4054,0.4061,0.4041,0.4043,0.4028,0.4018,0.4021,0.3988,0.3987,0.398,0.3976,0.3966,0.3957,0.3954,0,0,0.4061,0.4063,0.4052,0.4058,0.4036,0.4044,0.4021,0.4012,0.401,0.3995,0.3994,0.3979,0.3975,0.3966,0.3934,0.3931,0,0,0,0.4046,0.4038,0.4032,0.4023,0.4015,0.4009,0.4003,0.3999,0.3987,0.4002,0.3973,0.3971,0.3965,0.3961,0.3959,0.3954,0.3985,0.3985,0.3985,0.4016,0.4016,0.3999,0.3996,0.3987,0.3982,0.3975,0.397,0.3971,0.3965,0.396,0.3941,0.3936,0.3934,0.3929,0.3956,0.3956,0.3956,0.3956,0.3986,0.3975,0.398,0.3964,0.3964,0.3951,0.3946,0.3948,0.3937,0.3944,0.3939,0.3947,0.3931,0.3927,0.3955,0.3955,0.3955,0.3955,0.3955,0.3967,0.3961,0.3958,0.3946,0.3937,0.3935,0.3924,0.3925,0.3926,0.3921,0.3916,0.3916,0.3916,0.3919,0.3919,0.3919,0.3918,0.3918,0.3918,0.3947,0.3944,0.3935,0.3927,0.3922,0.3915,0.3911,0.3906,0.3901,0.3903,0.3903,0.3905,0.393,0.3935,0.3917,0.3918,0.3918,0.3918,0.3918,0.3916,0.3924,0.3909,0.3904,0.3896,0.3887,0.3889,0.3879,0.3875,0.387,0.3875,0.3892,0.3894,0.3896,0.3901,0.3874,0.3874,0.3874,0.3874,0.3899,0.3901,0.3886,0.3879,0.3871,0.3872,0.3856,0.3854,0.3852,0.385,0.3854,0.3861,0.3863,0.3863,0.3866,0.387,0.3837,0.3837,0.3837,0.388,0.3881,0.3867,0.3866,0.386,0.3855,0.3841,0.3832,0.3832,0.3835,0.3848,0.385,0.3861,0.3864,0.3867,0.3871,0.3879,0,0]}]]